Regional Weather Roundup
Issued by NWS

Home | Current Version | Previous Version | Graphics & Text | Print | Product List | Glossary On
Versions: 1 2 3 4 5 6 7 8 9 10 11 12 13 14 15 16 17 18 19 20 21 22 23 24 25 26 27 28 29 30 31 32 33 34 35 36 37 38 39 40 41 42 43 44 45 46 47 48 49 50
000
ASUS43 KDTX 250801
RWRMI
MICHIGAN HOURLY REGIONAL WEATHER ROUNDUP
NATIONAL WEATHER SERVICE DETROIT/PONTIAC MI
400 AM EDT MON MAY 25 2015

NOTE: "FAIR" INDICATES FEW OR NO CLOUDS BELOW 12,000 FEET WITH NO
SIGNIFICANT WEATHER AND/OR OBSTRUCTION TO VISIBILITY.

MIZ047>049-052>055-059>063-066>070-074>076-081>083-250900-
SOUTHEAST LOWER MICHIGAN

CITY           SKY/WX    TMP DP  RH WIND       PRES   REMARKS
ADRIAN         PTCLDY    67  52  58 SW9       30.02F
ALMA           CLOUDY    64  56  78 S5        29.95F
ANN ARBOR      MOCLDY    64  52  64 S6        30.02F
BAD AXE        CLOUDY    58  48  69 SE6       30.01F
CARO           MOCLDY    61  52  72 SE3       29.98F
DETROIT CITY   MOCLDY    69  52  54 S8        30.03F
DETROIT        CLOUDY    67  53  61 S8        30.03F
FLINT          PTCLDY    71  52  50 S8        29.99F
GROSSE ILE     MOCLDY    61  55  82 S5        30.02F
HILLSDALE      CLEAR     69  54  57 S7G16     30.01F
HOWELL         PTCLDY    65  51  62 SE6       30.00F

CITY           SKY/WX    TMP DP  RH WIND       PRES   REMARKS
JACKSON        CLEAR     70  54  56 S14G22    30.00F
LAMBERTVILLE   PTCLDY    68  50  52 S6        30.03S
LANSING        PTCLDY    66  53  63 S8        29.98F
LAPEER         FAIR      65  50  59 S6        30.01F
MASON          CLEAR     64  53  68 S6        29.99F
MONROE         MOCLDY    64  54  68 CALM      30.01F
MT. CLEMENS    CLOUDY    64  56  76 S7        30.01S
PONTIAC        MOCLDY    66  52  60 S6        30.02S
PORT HOPE        N/A     57  52  83 SE9       30.00F
PORT HURON     MOCLDY    68  54  60 S10       30.03S
TRI CITIES     MOCLDY    65  54  67 S6        29.96F
MIDLAND        CLOUDY    61  57  87 CALM      29.95F
TROY           MOCLDY    70  52  52 S6        30.04F
SAGINAW HB     CLOUDY    64  54  68 S9        29.96F
$$
MIZ043>046-050>051-056>058-064>065-071>073-077>080-250900-
SOUTHWEST LOWER MICHIGAN

CITY           SKY/WX    TMP DP  RH WIND       PRES   REMARKS
BATTLE CREEK   CLEAR     71  56  58 S12       29.97F
BENTON HARBOR  MOCLDY    71  59  65 S8        29.90F
BIG RAPIDS     CLOUDY    59  55  88 CALM      29.92F
COLDWATER      CLEAR     70  54  56 S7        29.98F
FREMONT        MOCLDY    62  58  88 SE3       29.90F
HOLLAND        PTCLDY    71  58  63 S12       29.91F
GRAND RAPIDS   PTCLDY    70  56  61 S12       29.93F
IONIA          FAIR      67  55  64 S8        29.94F
KALAMAZOO      CLEAR     70  56  61 S12       29.96F
LUDINGTON      CLOUDY    61  58  91 N5        29.89F
MARSHALL       CLEAR     70  55  59 S6        29.98F
MOUNT PLEASANT CLOUDY    59  57  94 CALM      29.95F
MUSKEGON       PTCLDY    74  58  57 S16G26    29.89F
SOUTH HAVEN    PTCLDY    72  58  60 S10G16    29.91F
$$
MIZ016>042-250900-
NORTHERN LOWER MICHIGAN

CITY           SKY/WX    TMP DP  RH WIND       PRES   REMARKS
ALPENA         RAIN      57  55  93 SE13      29.99F FOG
BEAVER ISLAND  RAIN      54  53  98 E12       29.94F
BELLAIRE       LGT RAIN  60  58  91 CALM      29.92F
CADILLAC       RAIN      58  56  94 E3        29.93F
CHARLEVOIX     LGT RAIN  59  59 100 E9        29.95F
FRANKFORT      HVY RAIN  63  57  82 SE3       29.89F
GAYLORD        LGT RAIN  58  58 100 S7        29.95F FOG
HARBOR SPRINGS RAIN      58  57  97 NE5G17    29.95F
HOUGHTON LAKE  LGT RAIN  59  55  87 SE7       29.96F
MANISTEE       CLOUDY    61  55  82 E6        29.90F
OSCODA         LGT RAIN  56  55  95 E9        29.99F
PELLSTON       HVY RAIN  58  57  97 E6        29.96F FOG
ROGERS CITY    HVY RAIN  58  57  98 SE6       30.00F
TRAVERSE CITY  RAIN      60  57  89 VRB3      29.91F FOG
$$
MIZ007>008-015-250900-
EASTERN UPPER MICHIGAN

CITY           SKY/WX    TMP DP  RH WIND       PRES   REMARKS
KINROSS        CLOUDY    54  54 100 E8        29.99F
MACKINAC ISLAN MIX PCPN  51  51 100 E12G18    29.97F
NEWBERRY       LGT RAIN  53  53  99 E7        29.96F
S. S. MARIE    LGT RAIN  54  52  93 E3        29.99F FOG
$$
MIZ004>006-011>014-085-250900-
CENTRAL UPPER MICHIGAN

CITY           SKY/WX    TMP DP  RH WIND       PRES   REMARKS
MANISTIQUE     RAIN      54  53  97 E6        29.93F
ESCANABA       CLOUDY    55  52  88 E7        29.88F
MENOMINEE      CLOUDY    54  50  87 E12       29.85F
SAWYER-GWINN   RAIN      54  53  95 CALM      29.92F
$$
MIZ001>003-009>011-084-250900-
WESTERN UPPER MICHIGAN

CITY           SKY/WX    TMP DP  RH WIND       PRES   REMARKS
IRON MOUNTAIN  LGT RAIN  56  54  93 E7        29.87F FOG
HOUGHTON       LGT RAIN  57  51  80 CALM      29.89F
COPPER HARBOR    N/A     51  42  71 CALM      29.90S
IRONWOOD       CLOUDY    57  55  94 NE7       29.81F
$$

ABBREVIATIONS USED IN REMARKS
   TC - TEMPERATURE IN CELSIUS
  WCI - WIND CHILL INDEX
   HX - HEAT INDEX
  VSB - VISIBILITY



USA.gov is the U.S. government's official web portal to all federal, state and local government web resources and services.